Weather History for Columbia, MO

Change the Weather History Date:

Tuesday, July 3, 2012

  Actual Average Record
Temperature  
Mean Temperature 86 °F 77 °F  
Max Temperature 101 °F 87 °F 104 °F (1901)
Min Temperature 71 °F 67 °F 51 °F (1924)
Degree Days  
Heating Degree Days 0 0  
Month to date heating degree days 0 0  
Since 1 June heating degree days 7 11  
Since 1 July heating degree days 0 0  
Cooling Degree Days 21 12  
Month to date cooling degree days 65 36  
Year to date cooling degree days 719 387  
Since 1 June cooling degree days 434 284  
Growing Degree Days 36 (Base 50)    
Moisture  
Dew Point 66 °F    
Average Humidity 58    
Maximum Humidity 84    
Minimum Humidity 31    
Precipitation  
Precipitation 0.00 in 0.15 in 3.14 in (1984)
Month to date precipitation 0.00 0.46  
Year to date precipitation 18.72 21.48  
Snow  
Snow 0.00 in 0.00 in 0.00 in (2013)
Month to date snowfall 0.0 0.0  
Since 1 June snowfall 0.0 0.0  
Since 1 July snowfall 0.0 0.0  
Snow Depth 0.00 in    
Sea Level Pressure  
Sea Level Pressure 29.91 in    
Wind  
Wind Speed 8 mph (SW)    
Max Wind Speed 20 mph    
Max Gust Speed 24 mph    
Visibility 10 miles    
Events      
T = Trace of Precipitation, MM = Missing Value Source: NWS Daily Summary

Daily Weather History Graph

Daily Weather History Graph

Search for Another Location

Airport:

Trip Planner

Search our weather history database for the weather conditions in past years. The results will help you decide how hot, cold, wet, or windy it might be!

Date:

Astronomy

Jul. 03, 2012 Rise Set
Actual Time 5:48 AM CDT 8:37 PM CDT
Civil Twilight 5:16 AM CDT 9:09 PM CDT
Nautical Twilight 4:37 AM CDT 9:49 PM CDT
Astronomical Twilight 3:51 AM CDT 10:34 PM CDT
Moon 8:33 PM CDT (7/3) 5:41 AM CDT (7/3)
Length of Visible Light 15h 52m
Length of Day
14h 48m
Full, 100% of the Moon is Illuminated
Jul 3
Full
Jul 3
Full
Jul 10
Last Quarter
Jul 18
New
Jul 26
First Quarter

Hourly Weather History & Observations

Time (CDT) Temp. Heat Index Dew Point Humidity Pressure Visibility Wind Dir Wind Speed Gust Speed Precip Events Conditions
12:54 AM 73.0 °F - 66.9 °F 81% 29.95 in 10.0 mi SSE 5.8 mph - N/A   Clear
1:54 AM 73.9 °F - 66.9 °F 79% 29.95 in 10.0 mi South 3.5 mph - N/A   Clear
2:54 AM 73.0 °F - 66.9 °F 81% 29.94 in 10.0 mi SSE 4.6 mph - N/A   Clear
3:54 AM 71.1 °F - 66.9 °F 87% 29.93 in 10.0 mi South 4.6 mph - N/A   Clear
4:54 AM 72.0 °F - 66.9 °F 84% 29.93 in 10.0 mi SSW 3.5 mph - N/A   Clear
5:54 AM 73.0 °F - 66.0 °F 79% 29.94 in 10.0 mi South 3.5 mph - N/A   Clear
6:54 AM 75.0 °F - 66.9 °F 76% 29.96 in 10.0 mi Calm Calm - N/A   Clear
7:54 AM 81.0 °F 83.3 °F 66.9 °F 62% 29.97 in 10.0 mi SW 9.2 mph - N/A   Clear
8:54 AM 86.0 °F 88.8 °F 66.9 °F 53% 29.97 in 10.0 mi WSW 10.4 mph - N/A   Clear
9:54 AM 90.0 °F 93.6 °F 68.0 °F 48% 29.96 in 10.0 mi WSW 12.7 mph 20.7 mph N/A   Clear
10:54 AM 93.0 °F 97.4 °F 68.0 °F 44% 29.95 in 10.0 mi West 10.4 mph - N/A   Clear
11:54 AM 95.0 °F 97.9 °F 66.0 °F 38% 29.93 in 10.0 mi West 11.5 mph - N/A   Clear
12:54 PM 98.1 °F 100.7 °F 64.0 °F 33% 29.92 in 10.0 mi WSW 12.7 mph 20.7 mph N/A   Clear
1:54 PM 99.0 °F 100.5 °F 63.0 °F 30% 29.91 in 10.0 mi SW 16.1 mph 20.7 mph N/A   Clear
2:54 PM 99.0 °F 100.5 °F 63.0 °F 30% 29.89 in 10.0 mi West 16.1 mph 23.0 mph N/A   Scattered Clouds
3:54 PM 100.0 °F 103.0 °F 64.0 °F 31% 29.87 in 10.0 mi West 12.7 mph 18.4 mph N/A   Partly Cloudy
4:54 PM 99.0 °F 102.3 °F 64.9 °F 33% 29.86 in 10.0 mi WSW 11.5 mph 17.3 mph N/A   Partly Cloudy
5:54 PM 99.0 °F 101.7 °F 64.0 °F 32% 29.84 in 10.0 mi WSW 15.0 mph - N/A   Partly Cloudy
6:54 PM 97.0 °F 99.3 °F 64.0 °F 34% 29.83 in 10.0 mi West 10.4 mph - N/A   Clear
7:54 PM 93.9 °F 96.1 °F 64.9 °F 38% 29.83 in 10.0 mi West 6.9 mph - N/A   Clear
8:54 PM 89.1 °F 91.3 °F 66.0 °F 46% 29.84 in 10.0 mi West 3.5 mph - N/A   Clear
9:54 PM 84.9 °F 87.1 °F 66.0 °F 53% 29.86 in 10.0 mi SW 4.6 mph - N/A   Clear
10:54 PM 84.0 °F 85.8 °F 64.9 °F 53% 29.88 in 10.0 mi SW 4.6 mph - N/A   Clear
11:54 PM 82.9 °F 85.0 °F 66.0 °F 56% 29.88 in 10.0 mi South 4.6 mph - N/A   Clear